Hot Springs, VA

11:21 PM EDT on March 22, 2017 (GMT -0400)
Ingalls

Weather History for KHSP - September, 2011

Change the Weather History Date:

Saturday, September 24, 2011

  Actual Average Record
Temperature  
Mean Temperature 56 °F -  
Max Temperature 59 °F 63 °F 82 °F (2010)
Min Temperature 53 °F 49 °F 39 °F (2012)
Degree Days  
Heating Degree Days 9    
Growing Degree Days 6 (Base 50)    
Moisture  
Dew Point 55 °F    
Average Humidity 98    
Maximum Humidity 100    
Minimum Humidity 88    
Precipitation  
Precipitation 0.00 in - - ()
Sea Level Pressure  
Sea Level Pressure 30.14 in    
Wind  
Wind Speed 8 mph (East)    
Max Wind Speed 13 mph    
Max Gust Speed -    
Visibility 6 miles    
Events Fog , Rain    
Averages and records for this station are not official NWS values.
T = Trace of Precipitation, MM = Missing Value Source: NWS Daily Summary

Daily Weather History Graph

Daily Weather History Graph

Search for Another Location

Airport or City:

Trip Planner

Search our weather history database for the weather conditions in past years. The results will help you decide how hot, cold, wet, or windy it might be!

Date:

Astronomy

Sep. 24, 2011 Rise Set
Actual Time 7:08 AM EDT 7:13 PM EDT
Civil Twilight 6:42 AM EDT 7:39 PM EDT
Nautical Twilight 6:11 AM EDT 8:10 PM EDT
Astronomical Twilight 5:40 AM EDT 8:41 PM EDT
Moon 3:45 AM EDT (9/24) 5:16 PM EDT (9/24)
Length of Visible Light 12h 57m
Length of Day
12h 05m
Waning Crescent, 11% of the Moon is Illuminated
Sep 24
Waning Crescent
Sep 27
New
Oct 3
First Quarter
Oct 11
Full
Oct 19
Last Quarter

Hourly Weather History & Observations

Time (EDT) Temp. Dew Point Humidity Pressure Visibility Wind Dir Wind Speed Gust Speed Precip Events Conditions
12:16 AM 55.4 °F 55.4 °F 100% 30.13 in 0.2 mi West 10.4 mph - N/A Fog Fog
12:35 AM 55.4 °F 55.4 °F 100% 30.12 in 0.2 mi WNW 10.4 mph - N/A Fog Fog
12:56 AM 55.4 °F 55.4 °F 100% 30.12 in 0.2 mi West 12.7 mph - N/A Fog Fog
1:15 AM 55.4 °F 55.4 °F 100% 30.12 in 0.5 mi West 10.4 mph - N/A Fog Fog
1:35 AM 53.6 °F 53.6 °F 100% 30.12 in 0.5 mi West 11.5 mph - N/A Fog Fog
1:55 AM 55.4 °F 55.4 °F 100% 30.12 in 0.2 mi West 11.5 mph - N/A Fog Fog
2:15 AM 53.6 °F 53.6 °F 100% 30.12 in 5.0 mi West 12.7 mph - N/A   Mostly Cloudy
2:35 AM 53.6 °F 53.6 °F 100% 30.12 in 0.2 mi West 9.2 mph - N/A Fog Fog
2:55 AM 53.6 °F 53.6 °F 100% 30.11 in 0.2 mi West 10.4 mph - N/A Fog Fog
3:16 AM 53.6 °F 53.6 °F 100% 30.11 in 0.2 mi West 10.4 mph - N/A Fog Fog
3:35 AM 53.6 °F 53.6 °F 100% 30.11 in 10.0 mi WNW 11.5 mph - N/A   Overcast
3:55 AM 53.6 °F 53.6 °F 100% 30.11 in 10.0 mi WNW 9.2 mph - N/A   Scattered Clouds
4:15 AM 53.6 °F 53.6 °F 100% 30.10 in 10.0 mi WNW 6.9 mph - N/A   Clear
4:35 AM 53.6 °F 51.8 °F 94% 30.11 in 10.0 mi Calm Calm - N/A   Mostly Cloudy
4:55 AM 53.6 °F 53.6 °F 100% 30.11 in 10.0 mi Calm Calm - N/A   Overcast
5:17 AM 53.6 °F 53.6 °F 100% 30.12 in 10.0 mi SSE 3.5 mph - N/A   Mostly Cloudy
5:35 AM 53.6 °F 53.6 °F 100% 30.11 in 10.0 mi Calm Calm - N/A   Overcast
5:58 AM 53.6 °F 53.6 °F 100% 30.12 in 10.0 mi East 3.5 mph - N/A   Mostly Cloudy
6:16 AM 53.6 °F 53.6 °F 100% 30.12 in 10.0 mi Calm Calm - N/A   Overcast
6:38 AM 53.6 °F 53.6 °F 100% 30.12 in 10.0 mi ESE 3.5 mph - N/A   Overcast
6:55 AM 53.6 °F 51.8 °F 94% 30.12 in 10.0 mi Calm Calm - N/A   Mostly Cloudy
7:15 AM 53.6 °F 53.6 °F 100% 30.13 in 10.0 mi Calm Calm - N/A   Mostly Cloudy
7:37 AM 53.6 °F 53.6 °F 100% 30.13 in 10.0 mi Calm Calm - N/A   Overcast
7:55 AM 53.6 °F 53.6 °F 100% 30.13 in 10.0 mi Calm Calm - N/A   Overcast
8:16 AM 55.4 °F 53.6 °F 94% 30.14 in 10.0 mi East 4.6 mph - N/A   Overcast
8:38 AM 55.4 °F 53.6 °F 94% 30.15 in 10.0 mi East 4.6 mph - N/A   Overcast
8:56 AM 55.4 °F 53.6 °F 94% 30.14 in 10.0 mi East 6.9 mph - N/A   Mostly Cloudy
9:16 AM 55.4 °F 53.6 °F 94% 30.15 in 10.0 mi East 5.8 mph - N/A   Mostly Cloudy
9:36 AM 57.2 °F 53.6 °F 88% 30.15 in 10.0 mi East 6.9 mph - N/A   Overcast
10:19 AM 57.2 °F 53.6 °F 88% 30.16 in 10.0 mi East 6.9 mph - N/A   Overcast
10:36 AM 57.2 °F 53.6 °F 88% 30.17 in 10.0 mi East 6.9 mph - N/A   Overcast
10:57 AM 57.2 °F 53.6 °F 88% 30.17 in 10.0 mi East 6.9 mph - N/A   Overcast
11:15 AM 57.2 °F 55.4 °F 94% 30.16 in 10.0 mi East 8.1 mph - N/A   Overcast
11:38 AM 57.2 °F 55.4 °F 94% 30.17 in 10.0 mi East 5.8 mph - N/A   Overcast
11:55 AM 57.2 °F 55.4 °F 94% 30.17 in 10.0 mi East 6.9 mph - N/A   Overcast
12:15 PM 57.2 °F 55.4 °F 94% 30.17 in 10.0 mi East 8.1 mph - N/A   Overcast
12:36 PM 57.2 °F 55.4 °F 94% 30.17 in 10.0 mi East 5.8 mph - N/A   Overcast
12:55 PM 57.2 °F 55.4 °F 94% 30.17 in 10.0 mi East 8.1 mph - N/A   Overcast
1:37 PM 57.2 °F 57.2 °F 100% 30.17 in 10.0 mi ESE 5.8 mph - N/A   Overcast
1:58 PM 57.2 °F 57.2 °F 100% 30.17 in 2.5 mi East 6.9 mph - N/A   Overcast
2:16 PM 57.2 °F 57.2 °F 100% 30.17 in 0.2 mi East 5.8 mph - N/A Fog Fog
2:35 PM 57.2 °F 57.2 °F 100% 30.17 in 0.2 mi SE 5.8 mph - N/A Fog Fog
2:56 PM 57.2 °F 57.2 °F 100% 30.16 in 0.2 mi ESE 8.1 mph - N/A Fog Fog
3:19 PM 59.0 °F 59.0 °F 100% 30.16 in 0.2 mi ESE 8.1 mph - N/A Fog Fog
3:35 PM 59.0 °F 59.0 °F 100% 30.16 in 0.2 mi ESE 6.9 mph - N/A Fog Fog
3:58 PM 59.0 °F 59.0 °F 100% 30.15 in 0.2 mi East 5.8 mph - N/A Fog Fog
4:18 PM 59.0 °F 59.0 °F 100% 30.15 in 0.2 mi East 6.9 mph - N/A   Heavy Drizzle
4:38 PM 59.0 °F 59.0 °F 100% 30.16 in 0.2 mi East 6.9 mph - N/A Rain Heavy Rain
4:56 PM 59.0 °F 59.0 °F 100% 30.15 in 0.2 mi East 6.9 mph - N/A   Heavy Drizzle
5:16 PM 59.0 °F 59.0 °F 100% 30.15 in 0.2 mi ESE 10.4 mph - N/A   Heavy Drizzle
5:40 PM 59.0 °F 59.0 °F 100% 30.15 in 0.2 mi East 9.2 mph - N/A   Drizzle
5:56 PM 59.0 °F 59.0 °F 100% 30.15 in 0.2 mi East 8.1 mph - N/A   Drizzle
6:16 PM 59.0 °F 59.0 °F 100% 30.16 in 0.2 mi East 6.9 mph - N/A   Drizzle
6:38 PM 60.8 °F 60.8 °F 100% 30.17 in 0.2 mi East 8.1 mph - N/A   Heavy Drizzle
6:56 PM 60.8 °F 60.8 °F 100% 30.17 in 0.2 mi East 11.5 mph - N/A   Heavy Drizzle
7:18 PM 60.8 °F 60.8 °F 100% 30.17 in 0.2 mi East 5.8 mph - N/A   Heavy Drizzle
7:38 PM 60.8 °F 60.8 °F 100% 30.17 in 0.2 mi ESE 8.1 mph - N/A Rain Heavy Rain
7:56 PM 60.8 °F 60.8 °F 100% 30.17 in 0.2 mi East 6.9 mph - N/A   Heavy Drizzle
8:18 PM 60.8 °F 60.8 °F 100% 30.17 in 0.2 mi East 8.1 mph - N/A   Heavy Drizzle
8:38 PM 60.8 °F 60.8 °F 100% 30.18 in 0.2 mi ESE 9.2 mph - N/A Rain Heavy Rain
8:58 PM 59.0 °F 59.0 °F 100% 30.18 in 0.2 mi East 8.1 mph 16.1 mph N/A Rain Heavy Rain
9:16 PM 59.0 °F 59.0 °F 100% 30.19 in 0.2 mi East 5.8 mph - N/A Rain Rain
9:36 PM 60.8 °F 60.8 °F 100% 30.19 in 0.2 mi ESE 8.1 mph - N/A   Heavy Drizzle
9:56 PM 59.0 °F 59.0 °F 100% 30.20 in 0.2 mi East 8.1 mph - N/A Rain Heavy Rain
10:16 PM 59.0 °F 59.0 °F 100% 30.21 in 0.2 mi ESE 5.8 mph - N/A   Heavy Drizzle
10:36 PM 59.0 °F 59.0 °F 100% 30.21 in 0.2 mi ESE 5.8 mph - N/A   Drizzle
10:56 PM 59.0 °F 59.0 °F 100% 30.21 in 0.2 mi ESE 3.5 mph - N/A   Heavy Drizzle
11:15 PM 59.0 °F 59.0 °F 100% 30.21 in 0.2 mi East 3.5 mph - N/A   Heavy Drizzle
11:36 PM 59.0 °F 59.0 °F 100% 30.21 in 0.2 mi SE 6.9 mph - N/A   Heavy Drizzle
11:56 PM 59.0 °F 59.0 °F 100% 30.20 in 0.2 mi East 4.6 mph - N/A   Heavy Drizzle